Location: Unspecified
(52.4292°N, 19.3359°E)
Time: 00:28:35
(UTC+02:00)

A-11 Canister half - Pass Details

Date: 23 May 2024
Orbit: 1515 x 1685 km, 47.2° (Epoch: 19 June)

Event Time Altitude Azimuth Distance (km) Brightness Sun altitude
Rises 08:57:37 0° 285° (WNW) 4,678 11.0 37.1°
Reaches altitude 10° 09:01:05 10° 276° (W) 3,684 10.6 37.6°
Maximum altitude 09:08:44 31° 219° (SW) 2,433 10.2 38.7°
Drops below altitude 10° 09:16:24 10° 163° (SSE) 3,686 11.6 39.9°
Sets 09:19:54 0° 153° (SSE) 4,681 12.1 40.4°
